Location: La Silve
(44.2414°N, 5.8889°E)
Time: 05:02:15
(UTC+00:00)

X-37B - Pass Details

Date: 01 December 2020
Orbit: 383 x 391 km, 45.0° (Epoch: 26 January)

Event Time Altitude Azimuth Distance (km) Brightness Sun altitude
Rises 17:18:35 0° 254° (WSW) 2,256 6.5 -13.9°
Reaches altitude 10° 17:20:38 10° 253° (WSW) 1,405 4.9 -14.2°
Maximum altitude 17:23:48 80° 167° (SSE) 396 0.5 -14.8°
Enters shadow 17:24:59 35° 84° (E) 641 1.1 -15.0°
